sat.trackr.live / text

‹ back to catalog

STARLINK-30878

NORAD 58359 · 2023-177J

PAYLOAD ACTIVE UNKNOWN

§ Identity

Operator
Country
US
Launch date
2023-11-18
Launch site
AFETR
Launch vehicle
Mass (kg)
RCS (m²)

Purposes: comms

External: N2YO · Heavens-Above · Gunter

§ Orbital elements

Epoch: 2026-09-20T06:00:24.046848Z

Period
94.27 min
Inclination
43.0031°
Eccentricity
0.0001056
Mean motion
15.27575892 rev/d
Perigee alt
482.3 km
Apogee alt
483.8 km
Semi-major
6,861.2 km
B*
1.0039e-5
RAAN
335.1686°
Arg perigee
266.6152°
Mean anomaly
93.4579°
Rev number
15,794

§ Raw data

STARLINK-308781 58359U 23177J   26263.25027832  .00000014  00000+0  10039-4 0  99992 58359  43.0031 335.1686 0001056 266.6152  93.4579 15.27575892157949

JSON: /api/v1/satellites/58359 · /tle

For live sub-satellite position, see the globe view (requires WebGL).

§ Visibility from observer

Set your observer location to see the next 7 days of passes ≥ 10°. The values pass through the URL so the page stays shareable.

No JS? Fill the form by hand. The geolocation button needs JavaScript.